FW6296 Weather Reports


Display with metric or nautical units.
time (UTC)temp
F
wind
direction
speed
MPH
gust
MPH
rain 1hr
in
rain 24hr
in
rain mn
in
humidity
%
barometer
mb
20260903091516 76 280 0.0 2.0 0.00 0.00 0.00 84 1014.1
20260903090516 76 0.0 0.0 0.00 0.00 0.00 85 1014.0
20260903085516 77 0.0 0.0 0.00 0.00 0.00 84 1014.0
20260903084516 77 0.0 0.0 0.00 0.00 0.00 83 1014.0
20260903083516 78 0.0 0.0 0.00 0.00 0.00 82 1014.0
20260903082516 78 79 0.0 1.0 0.00 0.00 0.00 81 1014.0
20260903081517 78 229 0.0 1.0 0.00 0.00 0.00 81 1014.0
20260903080517 79 143 0.0 2.0 0.00 0.00 0.00 80 1014.0
20260903075518 78 239 0.0 3.0 0.00 0.00 0.00 80 1014.0
20260903074517 78 235 1.0 3.0 0.00 0.00 0.00 82 1013.9
20260903073517 77 0.0 0.0 0.00 0.00 0.00 84 1014.0
20260903072517 77 0.0 0.0 0.00 0.00 0.00 85 1014.0
20260903071518 77 0.0 0.0 0.00 0.00 0.00 85 1014.0
20260903070518 77 0.0 0.0 0.00 0.00 0.00 85 1014.0
20260903065518 77 0.0 0.0 0.00 0.00 0.00 85 1013.9
20260903064515 77 0.0 0.0 0.00 0.00 0.00 85 1014.0
20260903063516 78 0.0 0.0 0.00 0.00 0.00 84 1014.0
20260903062535 78 0.0 0.0 0.00 0.00 0.00 84 1014.0
20260903061516 78 0.0 0.0 0.00 0.00 0.00 84 1014.0
20260903060516 78 234 0.0 2.0 0.00 0.00 0.00 83 1014.0
20260903055516 78 0.0 0.0 0.00 0.00 0.00 83 1014.0
20260903054557 79 0.0 0.0 0.00 0.00 0.00 82 1014.0
20260903053517 79 0.0 0.0 0.00 0.00 0.00 81 1014.0
20260903052537 80 0.0 0.0 0.00 0.00 0.00 80 1014.0
20260903051557 80 235 0.0 3.0 0.00 0.00 0.00 80 1013.9
20260903050517 80 226 0.0 3.0 0.00 0.00 0.00 79 1013.8
20260903045517 80 234 0.0 2.0 0.00 0.00 0.00 79 1013.9
20260903044517 81 227 0.0 3.0 0.00 0.00 0.00 79 1013.9
20260903043518 81 235 0.0 2.0 0.00 0.00 0.00 78 1013.8
20260903042538 81 223 0.0 3.0 0.00 0.00 0.00 78 1013.8
20260903041518 81 233 0.0 3.0 0.00 0.00 0.00 77 1013.8
20260903040518 81 219 1.0 4.0 0.00 0.00 0.00 77 1013.7
20260903035536 81 228 1.0 4.0 0.00 0.00 0.00 78 1013.7
20260903034515 81 240 1.0 5.0 0.00 0.00 0.00 78 1013.7
20260903033516 81 231 1.0 3.0 0.00 0.00 0.00 79 1013.7
20260903032516 82 222 1.0 3.0 0.00 0.00 0.00 79 1013.7
20260903031516 82 222 0.0 3.0 0.00 0.00 0.00 78 1013.8
20260903030517 82 222 0.0 2.0 0.00 0.00 0.00 77 1013.8
20260903025516 83 223 1.0 3.0 0.00 0.00 0.00 77 1013.7
20260903024537 83 238 1.0 3.0 0.00 0.00 0.00 76 1013.8
20260903023517 83 186 0.0 2.0 0.00 0.00 0.00 76 1013.8
20260903022517 83 192 0.0 3.0 0.00 0.00 0.00 76 1013.7
20260903021537 83 228 0.0 3.0 0.00 0.00 0.00 75 1013.6
20260903020517 84 220 0.0 3.0 0.00 0.00 0.00 75 1013.6
20260903015557 84 223 1.0 4.0 0.00 0.00 0.00 73 1013.5
20260903014517 85 237 0.0 2.0 0.00 0.00 0.00 72 1013.5
20260903013518 85 166 0.0 3.0 0.00 0.00 0.00 71 1013.5
20260903012518 86 222 1.0 3.0 0.00 0.00 0.00 70 1013.4
20260903011518 86 208 0.0 3.0 0.00 0.00 0.00 70 1013.3
20260903010539 86 238 1.0 5.0 0.00 0.00 0.00 71 1013.2
20260903005515 87 237 1.0 3.0 0.00 0.00 0.00 70 1013.1
20260903004516 87 256 1.0 3.0 0.00 0.00 0.00 69 1013.1
20260903003516 87 233 1.0 4.0 0.00 0.00 0.00 68 1013.1
20260903002516 88 93 1.0 4.0 0.00 0.00 0.00 68 1013.1
20260903001516 89 247 0.0 3.0 0.00 0.00 0.00 67 1013.1
20260903000518 89 234 0.0 3.0 0.00 0.00 0.00 66 1013.1
20260902235516 90 212 1.0 4.0 0.00 0.00 0.00 63 1013.2
20260902234516 91 222 1.0 4.0 0.00 0.00 0.00 60 1013.2
20260902233517 92 224 1.0 4.0 0.00 0.00 0.00 58 1013.3
20260902232517 92 245 1.0 4.0 0.00 0.00 0.00 58 1013.3
20260902231518 92 284 1.0 4.0 0.00 0.00 0.00 59 1013.4
20260902230517 93 279 2.0 5.0 0.00 0.00 0.00 58 1013.4
20260902225518 94 263 1.0 4.0 0.00 0.00 0.00 56 1013.3
20260902224538 95 270 1.0 5.0 0.00 0.00 0.00 54 1013.4
20260902223518 95 250 1.0 4.0 0.00 0.00 0.00 53 1013.4
20260902222519 94 262 2.0 6.0 0.00 0.00 0.00 53 1013.5
20260902221515 95 268 2.0 5.0 0.00 0.00 0.00 52 1013.4
20260902220515 95 271 1.0 4.0 0.00 0.00 0.00 54 1013.5
20260902215516 94 273 2.0 5.0 0.00 0.00 0.00 55 1013.5
20260902214516 94 280 1.0 4.0 0.00 0.00 0.00 55 1013.6
20260902213516 95 274 1.0 4.0 0.00 0.00 0.00 53 1013.6
20260902212517 96 261 2.0 5.0 0.00 0.00 0.00 52 1013.6
20260902211517 96 264 2.0 6.0 0.00 0.00 0.00 51 1013.7
20260902210517 96 285 2.0 5.0 0.00 0.00 0.00 49 1013.7
20260902205517 97 275 1.0 4.0 0.00 0.00 0.00 49 1013.7
20260902204517 97 273 3.0 6.0 0.00 0.00 0.00 49 1013.7
20260902203517 97 281 2.0 6.0 0.00 0.00 0.00 49 1013.7
20260902202517 97 277 2.0 6.0 0.00 0.00 0.00 48 1013.8
20260902201517 97 282 3.0 7.0 0.00 0.00 0.00 49 1013.9
20260902200538 97 282 2.0 5.0 0.00 0.00 0.00 48 1014.0
20260902195519 97 287 2.0 6.0 0.00 0.00 0.00 49 1014.1
20260902194518 96 278 2.0 5.0 0.00 0.00 0.00 50 1014.1
20260902193518 96 273 2.0 6.0 0.00 0.00 0.00 50 1014.2
20260902192515 96 287 2.0 5.0 0.00 0.00 0.00 50 1014.2
20260902191518 96 275 2.0 6.0 0.00 0.00 0.00 50 1014.3
20260902190516 95 292 2.0 6.0 0.00 0.00 0.00 52 1014.4
20260902185536 95 282 2.0 6.0 0.00 0.00 0.00 51 1014.6
20260902184516 95 247 1.0 4.0 0.00 0.00 0.00 52 1014.6
20260902183516 94 279 2.0 6.0 0.00 0.00 0.00 55 1014.6
20260902182516 93 283 2.0 5.0 0.00 0.00 0.00 55 1014.6
20260902181516 93 277 2.0 5.0 0.00 0.00 0.00 56 1014.7
20260902180516 93 276 3.0 6.0 0.00 0.00 0.00 56 1014.7
20260902175517 93 274 1.0 4.0 0.00 0.00 0.00 55 1014.8
20260902174517 93 286 2.0 6.0 0.00 0.00 0.00 56 1014.8
20260902173517 92 273 2.0 4.0 0.00 0.00 0.00 56 1014.9
20260902172517 92 272 2.0 5.0 0.00 0.00 0.00 57 1014.8
20260902171517 92 272 1.0 4.0 0.00 0.00 0.00 57 1015.0
20260902170518 91 275 2.0 6.0 0.00 0.00 0.00 57 1015.1
20260902165518 90 281 3.0 7.0 0.00 0.00 0.00 58 1015.2
20260902164518 90 287 3.0 6.0 0.00 0.00 0.00 59 1015.4
20260902163518 90 286 3.0 6.0 0.00 0.00 0.00 59 1015.3
20260902162536 89 286 2.0 6.0 0.00 0.00 0.00 59 1015.3
20260902161516 89 277 2.0 6.0 0.00 0.00 0.00 61 1015.4
20260902160536 88 273 3.0 5.0 0.00 0.00 0.00 64 1015.4
20260902155516 87 291 3.0 7.0 0.00 0.00 0.00 64 1015.6
20260902154516 87 278 2.0 6.0 0.00 0.00 0.00 65 1015.2
20260902153516 86 277 2.0 6.0 0.00 0.00 0.00 66 1015.2
20260902152516 86 268 2.0 7.0 0.00 0.00 0.00 66 1015.2
20260902151516 85 282 3.0 6.0 0.00 0.00 0.00 67 1015.1
20260902150517 85 269 2.0 6.0 0.00 0.00 0.00 68 1015.0
20260902145516 85 243 2.0 6.0 0.00 0.00 0.00 68 1015.1
20260902144517 84 259 0.0 3.0 0.00 0.00 0.00 69 1015.2
20260902143537 84 271 1.0 4.0 0.00 0.00 0.00 70 1015.2
20260902142517 83 275 1.0 4.0 0.00 0.00 0.00 70 1015.2
20260902141518 84 264 2.0 5.0 0.00 0.00 0.00 69 1015.2
20260902140517 83 263 0.0 4.0 0.00 0.00 0.00 70 1015.3
20260902135538 82 261 1.0 5.0 0.00 0.00 0.00 71 1015.3
20260902134518 82 236 1.0 3.0 0.00 0.00 0.00 72 1015.4
20260902133518 81 245 1.0 3.0 0.00 0.00 0.00 73 1015.5
20260902132518 79 28 0.0 3.0 0.00 0.00 0.00 75 1015.5
20260902131535 78 245 0.0 2.0 0.00 0.00 0.00 77 1015.5
20260902130516 77 123 0.0 2.0 0.00 0.00 0.00 79 1015.5
20260902125536 77 84 0.0 2.0 0.00 0.00 0.00 78 1015.5
20260902124516 76 0.0 0.0 0.00 0.00 0.00 80 1015.5
20260902123516 76 230 0.0 1.0 0.00 0.00 0.00 81 1015.5
20260902122516 75 188 0.0 2.0 0.00 0.00 0.00 82 1015.5
20260902121517 75 0.0 0.0 0.00 0.00 0.00 82 1015.5
20260902120517 75 0.0 0.0 0.00 0.00 0.00 83 1015.4
20260902115518 74 0.0 0.0 0.00 0.00 0.00 83 1015.4
20260902114518 74 0.0 0.0 0.00 0.00 0.00 84 1015.4
20260902113518 74 262 0.0 1.0 0.00 0.00 0.00 84 1015.4
20260902112518 74 0.0 0.0 0.00 0.03 0.00 85 1015.5
20260902111515 73 0.0 0.0 0.00 0.04 0.00 86 1015.4
20260902110516 74 0.0 0.0 0.00 0.04 0.00 85 1015.3
20260902105536 74 0.0 0.0 0.00 0.06 0.00 85 1015.3
20260902104516 74 0.0 0.0 0.00 0.08 0.00 85 1015.3
20260902103516 73 0.0 0.0 0.00 0.09 0.00 85 1015.2
20260902102516 73 0.0 0.0 0.00 0.13 0.00 86 1015.3
20260902101517 73 121 0.0 2.0 0.00 0.20 0.00 86 1015.3
20260902100517 73 0.0 0.0 0.00 0.20 0.00 87 1015.3
20260902095517 73 0.0 0.0 0.00 0.20 0.00 88 1015.2
20260902094517 73 0.0 0.0 0.00 0.20 0.00 88 1015.1
20260902093517 73 0.0 0.0 0.00 0.20 0.00 87 1015.0
20260902092517 74 0.0 0.0 0.00 0.20 0.00 86 1015.0